Location: Gönnheim
(49.4488°N, 8.2383°E)
Time: 21:49:47
(UTC+00:00)

Cosmos 2084 Rocket - Pass Details

Date: 19 May 2025
Orbit: 542 x 579 km, 62.8° (Epoch: 15 June)

Event Time Altitude Azimuth Distance (km) Brightness Sun altitude
Rises 20:15:47 0° 189° (S) 2,779 6.5 -9.1°
Reaches altitude 10° 20:18:17 10° 176° (S) 1,882 5.6 -9.4°
Maximum altitude 20:21:48 26° 120° (ESE) 1,158 4.4 -9.7°
Drops below altitude 10° 20:25:19 10° 64° (ENE) 1,880 5.9 -10.1°
Sets 20:27:49 0° 52° (NE) 2,775 6.9 -10.4°
